Yakima, WA

7:25 PM PDT on August 18, 2017 (GMT -0700)
Yakima Air Term-McAllister

Weather History for KYKM - December, 2012

Change the Weather History Date:

Friday, December 7, 2012

  Actual Average Record
Temperature  
Mean Temperature 39 °F 30 °F  
Max Temperature 50 °F 37 °F 58 °F (1973)
Min Temperature 28 °F 22 °F -2 °F (1956)
Degree Days  
Heating Degree Days 26 35  
Month to date heating degree days 151 240  
Since 1 July heating degree days 1389 1773  
Cooling Degree Days 0 0  
Month to date cooling degree days 0 0  
Year to date cooling degree days 667 472  
Moisture  
Dew Point 28 °F    
Average Humidity 66    
Maximum Humidity 92    
Minimum Humidity 40    
Precipitation  
Precipitation 0.00 in 0.04 in 0.78 in (2015)
Month to date precipitation 0.74 0.34  
Year to date precipitation 7.93 7.06  
Snow  
Snow 0.00 in 0.30 in 4.60 in (1948)
Month to date snowfall 0.0 2.0  
Year to date snowfall 22.2 14.2  
Since 1 July snowfall 0.7 5.6  
Snow Depth 0.00 in    
Sea Level Pressure  
Sea Level Pressure 30.01 in    
Wind  
Wind Speed 7 mph (WNW)    
Max Wind Speed 32 mph    
Max Gust Speed 40 mph    
Visibility 9 miles    
Events      
T = Trace of Precipitation, MM = Missing Value Source: NWS Daily Summary

Daily Weather History Graph

Daily Weather History Graph

Search for Another Location

Airport or City:

Trip Planner

Search our weather history database for the weather conditions in past years. The results will help you decide how hot, cold, wet, or windy it might be!

Date:

Astronomy

Dec. 07, 2012 Rise Set
Actual Time 7:32 AM PST 4:14 PM PST
Civil Twilight 6:58 AM PST 4:49 PM PST
Nautical Twilight 6:20 AM PST 5:27 PM PST
Astronomical Twilight 5:43 AM PST 6:04 PM PST
Moon 12:37 AM PST (12/7) 12:32 PM PST (12/7)
Length of Visible Light 9h 51m
Length of Day
8h 41m
Last Quarter, 37% of the Moon is Illuminated
Dec 7
Last Quarter
Dec 13
New
Dec 19
First Quarter
Dec 28
Full
Jan 4
Last Quarter

Hourly Weather History & Observations

Time (PST) Temp. Windchill Dew Point Humidity Pressure Visibility Wind Dir Wind Speed Gust Speed Precip Events Conditions
12:53 AM 28.9 °F - 25.0 °F 85% 30.10 in 9.0 mi Calm Calm - N/A   Clear
1:53 AM 30.0 °F - 27.0 °F 88% 30.09 in 7.0 mi Calm Calm - N/A   Clear
2:53 AM 30.9 °F 26.2 °F 27.0 °F 85% 30.08 in 8.0 mi NW 4.6 mph - N/A   Clear
3:53 AM 28.9 °F 25.2 °F 27.0 °F 92% 30.07 in 7.0 mi West 3.5 mph - N/A   Clear
4:53 AM 30.9 °F - 28.0 °F 89% 30.06 in 8.0 mi Calm Calm - N/A   Clear
5:53 AM 30.9 °F - 28.0 °F 89% 30.04 in 9.0 mi Calm Calm - N/A   Clear
6:53 AM 28.9 °F 25.2 °F 26.1 °F 89% 30.02 in 8.0 mi NW 3.5 mph - N/A   Clear
7:53 AM 30.0 °F - 27.0 °F 88% 30.00 in 8.0 mi Calm Calm - N/A   Clear
8:53 AM 33.1 °F - 30.0 °F 89% 29.98 in 9.0 mi Calm Calm - N/A   Clear
9:53 AM 37.0 °F 34.5 °F 30.9 °F 79% 29.98 in 10.0 mi SW 3.5 mph - N/A   Clear
10:53 AM 41.0 °F - 33.1 °F 73% 29.94 in 10.0 mi Calm Calm - N/A   Clear
11:53 AM 45.0 °F 42.6 °F 34.0 °F 65% 29.91 in 10.0 mi NNE 4.6 mph - N/A   Partly Cloudy
12:53 PM 48.0 °F - 36.0 °F 63% 29.89 in 10.0 mi Calm Calm - N/A   Partly Cloudy
1:53 PM 48.0 °F - 33.1 °F 56% 29.89 in 10.0 mi WNW 12.7 mph - N/A   Scattered Clouds
2:53 PM 46.0 °F 44.8 °F 34.0 °F 63% 29.90 in 10.0 mi NW 3.5 mph - N/A   Partly Cloudy
3:53 PM 46.9 °F - 28.0 °F 48% 29.92 in 10.0 mi West 26.5 mph 35.7 mph N/A   Scattered Clouds
4:53 PM 45.0 °F 36.4 °F 21.9 °F 40% 29.94 in 10.0 mi West 23.0 mph 33.4 mph N/A   Scattered Clouds
5:53 PM 44.1 °F 35.2 °F 23.0 °F 43% 29.98 in 10.0 mi WNW 23.0 mph 31.1 mph N/A   Clear
6:53 PM 41.0 °F 34.3 °F 27.0 °F 57% 30.02 in 10.0 mi NW 11.5 mph - N/A   Clear
7:53 PM 37.9 °F 32.7 °F 28.0 °F 68% 30.04 in 10.0 mi NNW 6.9 mph - N/A   Clear
8:53 PM 39.9 °F 32.5 °F 26.1 °F 58% 30.05 in 10.0 mi WNW 12.7 mph - N/A   Clear
9:53 PM 41.0 °F 34.3 °F 24.1 °F 51% 30.06 in 10.0 mi West 11.5 mph - N/A   Clear
10:53 PM 39.9 °F 34.5 °F 23.0 °F 51% 30.07 in 10.0 mi WNW 8.1 mph - N/A   Clear
11:53 PM 37.0 °F 34.5 °F 24.1 °F 59% 30.09 in 10.0 mi West 3.5 mph - N/A   Clear